MST,Max TemperatureF,Mean TemperatureF,Min TemperatureF,Max Dew PointF,MeanDew PointF,Min DewpointF,Max Humidity, Mean Humidity, Min Humidity, Max Sea Level PressureIn, Mean Sea Level PressureIn, Min Sea Level PressureIn, Max VisibilityMiles, Mean VisibilityMiles, Min VisibilityMiles, Max Wind SpeedMPH, Mean Wind SpeedMPH, Max Gust SpeedMPH,PrecipitationIn, CloudCover, Events, WindDirDegrees
2013-2-1,59,38,17,17,11,0,74,42,10,30.20,30.10,29.95,10,10,10,29,11,36,0.00,0,,286
2013-2-2,56,36,16,16,13,9,68,42,15,30.35,30.27,30.20,10,10,10,15,7,17,0.00,0,,252
2013-2-3,52,38,23,16,12,8,58,38,17,30.25,30.00,29.84,10,10,10,16,8,20,0.00,1,,252
2013-2-4,59,38,16,14,10,6,73,43,13,30.06,29.92,29.79,10,10,10,14,7,17,0.00,0,,263
2013-2-5,58,40,22,15,11,9,55,35,15,30.08,29.95,29.83,10,10,10,20,9,26,0.00,0,,210
2013-2-6,65,49,32,27,15,9,44,28,12,29.89,29.77,29.63,10,10,10,22,11,30,0.00,2,,353
2013-2-7,45,36,27,31,27,19,92,69,45,30.17,30.10,29.92,10,8,0,20,6,25,0.15,5,Fog-Snow,315
2013-2-8,52,38,23,24,21,17,68,48,28,30.08,29.89,29.71,10,10,10,45,22,58,0.00,0,,200
2013-2-9,52,41,29,25,16,2,59,39,18,29.69,29.49,29.34,10,10,10,45,21,59,0.00,2,,238
2013-2-10,40,32,23,21,12,0,58,39,19,30.02,29.80,29.48,10,9,1,23,9,29,T,4,Snow,49
2013-2-11,40,30,19,20,17,13,88,64,40,30.10,30.02,29.92,10,8,1,24,8,29,0.03,5,Snow,25
2013-2-12,39,24,9,18,7,-2,84,52,19,30.15,30.07,30.01,10,10,10,18,9,24,0.00,1,,301
2013-2-13,54,32,10,16,7,3,67,41,14,30.11,30.00,29.88,10,10,10,17,8,21,0.00,0,,280
2013-2-14,48,33,17,23,16,9,88,57,25,30.39,30.18,30.01,10,9,2,37,9,45,T,5,Snow,44
2013-2-15,45,27,8,19,12,4,92,56,20,30.46,30.32,30.21,10,10,10,18,7,23,0.00,2,,276
2013-2-16,60,39,18,12,5,0,74,42,9,30.30,30.12,29.94,10,10,10,22,13,29,0.00,0,,276
2013-2-17,66,45,23,5,-5,-31,37,20,2,29.93,29.71,29.53,10,10,10,23,12,30,0.00,0,,257
2013-2-18,41,29,17,25,18,9,88,57,26,30.15,29.96,29.63,10,7,0,25,5,31,0.05,4,Fog-Snow,332
2013-2-19,54,33,11,17,11,6,76,46,16,30.14,29.95,29.73,10,10,10,37,13,46,0.00,0,,183
2013-2-20,48,34,20,34,27,18,100,75,49,29.70,29.55,29.44,10,6,1,29,8,36,0.02,7,Rain-Snow,281
2013-2-21,27,23,19,25,20,17,92,83,74,29.96,29.68,29.51,10,7,0,23,8,30,0.04,7,Fog-Snow,332
2013-2-22,31,26,20,27,22,14,92,82,71,29.99,29.92,29.84,10,6,2,13,5,15,T,7,Snow,14
2013-2-23,53,33,13,22,17,9,92,57,22,29.93,29.75,29.58,10,10,10,16,7,18,0.02,0,,241
2013-2-24,34,27,20,25,22,15,92,73,53,30.04,29.84,29.53,10,4,1,26,13,36,T,7,Snow,353
2013-2-25,36,23,9,18,14,7,84,61,38,30.16,30.02,29.89,10,10,5,21,9,29,T,3,Snow,327
2013-2-26,41,27,13,25,18,9,81,56,30,30.08,29.89,29.74,10,8,2,24,11,29,T,6,Snow,345
2013-2-27,38,27,15,15,12,9,80,56,32,30.31,30.24,30.11,10,10,10,20,8,25,T,1,,357
2013-2-28,48,31,13,11,7,1,84,50,15,30.36,30.27,30.17,10,10,10,17,8,22,0.00,1,,291